Regional Weather Roundup
Issued by NWS

Home | Current Version | Previous Version | Text Only | Print | Product List | Glossary On
Versions: 1 2 3 4 5 6 7 8 9 10 11 12 13 14 15 16 17 18 19 20 21 22 23 24 25 26 27 28 29 30 31 32 33 34 35 36 37 38 39 40 41 42 43 44 45 46 47 48 49 50
000
ASUS43 KDTX 300401
RWRMI
MICHIGAN HOURLY REGIONAL WEATHER ROUNDUP
NATIONAL WEATHER SERVICE DETROIT/PONTIAC MI
1200 AM EDT SUN APR 30 2017

NOTE: "FAIR" INDICATES FEW OR NO CLOUDS BELOW 12,000 FEET WITH NO
SIGNIFICANT WEATHER AND/OR OBSTRUCTION TO VISIBILITY.

MIZ047>049-052>055-059>063-066>070-074>076-081>083-300500-
SOUTHEAST LOWER MICHIGAN

CITY           SKY/WX    TMP DP  RH WIND       PRES   REMARKS
ADRIAN         CLOUDY    46  30  53 E17G26    30.10F
ALMA           LGT RAIN  41  37  86 NE9       30.24S
ANN ARBOR      CLOUDY    46  30  53 NE15G23   30.11F
BAD AXE        CLOUDY    42  30  63 NE6       30.26F
CARO           CLOUDY    42  33  69 NE5       30.23F
DETROIT CITY   CLOUDY    42  30  62 NE14G26   30.17F
DETROIT        CLOUDY    44  30  57 NE16G23   30.15F
FLINT          CLOUDY    43  31  62 NE16      30.21F
GROSSE ILE     CLOUDY    43  33  68 NE21G26   30.13F
HILLSDALE      CLOUDY    45  30  57 NE16G22   30.06F
HOWELL         CLOUDY    44  29  54 NE10G16   30.15F

CITY           SKY/WX    TMP DP  RH WIND       PRES   REMARKS
JACKSON        CLOUDY    47  29  49 NE18G26   30.08F
LAMBERTVILLE   LGT RAIN  44  34  68 E7G17     30.11F
LANSING        LGT RAIN  45  36  70 NE15G23   30.13F
LAPEER         CLOUDY    42  31  67 E7        30.20F
MASON          CLOUDY    46  32  58 NE16G24   30.11F
MONROE         CLOUDY    44  32  62 NE9       30.14F
MT. CLEMENS    CLOUDY    42  32  69 NE12      30.18F
PONTIAC        CLOUDY    42  29  59 NE14G24   30.15F
PORT HOPE        N/A     43  35  73 NE13      30.26F
PORT HURON     CLOUDY    41  34  75 NE9       30.24F
TRI CITIES     LGT RAIN  44  36  73 E10       30.25F
MIDLAND        LGT RAIN  44  34  69 E9        30.23F
TROY           CLOUDY    43  28  56 NE16      30.18F
SAGINAW HB     DRIZZLE   43  34  70 N3        30.26R
$$
MIZ043>046-050>051-056>058-064>065-071>073-077>080-300500-
SOUTHWEST LOWER MICHIGAN

CITY           SKY/WX    TMP DP  RH WIND       PRES   REMARKS
BATTLE CREEK   CLOUDY    47  34  60 E17G25    30.04F THUNDER
BENTON HARBOR  LGT RAIN  46  42  86 E22G31    30.00R
BIG RAPIDS     LGT RAIN  41  33  74 E13       30.19F
COLDWATER      CLOUDY    47  31  54 E17G26    30.04F
FREMONT        LGT RAIN  42  37  80 NE18G29   30.10F
HOLLAND        RAIN      44  40  85 E21G32    30.05F FOG
GRAND RAPIDS   TSTM      42  42 100 NE17G31   30.11F
IONIA          LGT RAIN  41  37  84 NE22G28   30.09F
KALAMAZOO      RAIN      46  36  68 NE15G23   30.04F
LUDINGTON      LGT RAIN  40  38  93 NE9       30.16F WCI  34
MARSHALL       CLOUDY    48  31  50 NE10G24   30.06F
MOUNT PLEASANT LGT RAIN  42  36  78 NE7       30.22F
MUSKEGON       RAIN      45  41  86 E18G29    30.08F
SOUTH HAVEN    RAIN      43  40  91 E14G28    30.01S
$$
MIZ016>042-300500-
NORTHERN LOWER MICHIGAN

CITY           SKY/WX    TMP DP  RH WIND       PRES   REMARKS
ALPENA         CLOUDY    44  32  62 NE9       30.29F
BEAVER ISLAND  CLOUDY    39  28  64 NE7       30.29F WCI  34
BELLAIRE       CLOUDY    45  29  53 NE6       30.26F
CADILLAC       LGT RAIN  40  38  91 E9        30.21F WCI  34
CHARLEVOIX     CLOUDY    43  27  53 E7        30.30S
FRANKFORT      CLOUDY    45  29  54 NE7       30.21F
GAYLORD        CLOUDY    44  27  51 NE9       30.25F
GRAYLING       CLOUDY    45  28  50 E8        30.26S
HARBOR SPRINGS CLOUDY    41  26  55 E8        30.27F
HOUGHTON LAKE  LGT RAIN  42  36  79 E7        30.26R
MANISTEE       LGT RAIN  41  35  79 E9        30.20F
OSCODA         CLOUDY    45  36  70 NE5       30.28F
PELLSTON       CLOUDY    40  26  57 NE5       30.29F
ROGERS CITY    CLOUDY    41  31  68 N6        30.30F
TRAVERSE CITY  CLOUDY    44  35  70 NE5       30.23F
$$
MIZ007>008-015-300500-
EASTERN UPPER MICHIGAN

CITY           SKY/WX    TMP DP  RH WIND       PRES   REMARKS
KINROSS        CLOUDY    37  28  70 N7        30.30F WCI  32
MACKINAC ISLAN CLOUDY    38  30  72 NE9       30.28F WCI  31
NEWBERRY       MOCLDY    34  29  83 N7        30.31F WCI  28
S. S. MARIE    CLOUDY    40  29  64 CALM      30.31S
MUNISING         N/A     36  31  82 N6        30.31F WCI  31
$$
MIZ004>006-011>014-085-300500-
CENTRAL UPPER MICHIGAN

CITY           SKY/WX    TMP DP  RH WIND       PRES   REMARKS
MANISTIQUE     CLOUDY    35  28  76 N5        30.30F WCI  31
ESCANABA       MOCLDY    37  26  64 VRB5      30.30F WCI  33
MENOMINEE      CLOUDY    41  25  53 NE15G21   30.25F
SAWYER-GWINN   CLOUDY    33  29  85 NE9       30.29F WCI  25
$$
MIZ001>003-009>011-084-300500-
WESTERN UPPER MICHIGAN

CITY           SKY/WX    TMP DP  RH WIND       PRES   REMARKS
IRON MOUNTAIN  MOCLDY    38  19  46 N3        30.27F
HOUGHTON       PTCLDY    32  25  75 CALM      30.32R
COPPER HARBOR    N/A     32  26  78 SW6       30.33F WCI  26
IRONWOOD       CLOUDY    34  22  61 E5        30.30F WCI  30
$$

ABBREVIATIONS USED IN REMARKS
   TC - TEMPERATURE IN CELSIUS
  WCI - WIND CHILL INDEX
   HX - HEAT INDEX
  VSB - VISIBILITY




USA.gov is the U.S. government's official web portal to all federal, state and local government web resources and services.